This demonstration page uses our WeatherBlox Daily Observations layout. Learn more.

Left ArrowRight Arrow

Hourly Observations for January 20, 2017

Temp ( °F °C ) Dew Point ( °F °C ) Humidity (%) Winds ( mph kmh ) Pressure ( in mb ) Visibility ( mi km ) Precip ( " mm )
12:15 am 00:15 Cloudy 43 6 43 6 100 100 ESE 10 17 29.71 1006 7 11 N/A
12:35 am 00:35 Cloudy 43 6 43 6 100 100 ESE 8 13 29.71 1006 5 8 N/A
12:56 am 00:56 Cloudy 43 6 43 6 100 100 ESE 7 11 29.68 1005 5 8 N/A
1:15 am 01:15 Cloudy 43 6 43 6 100 100 ESE 8 13 29.68 1005 5 8 N/A
1:35 am 01:35 Cloudy 43 6 43 6 100 100 ESE 7 11 29.65 1004 5 8 N/A
1:56 am 01:56 Cloudy 43 6 43 6 100 100 ESE 8 13 29.65 1004 5 8 N/A
2:15 am 02:15 Cloudy 43 6 43 6 100 100 ESE 7 11 29.65 1004 5 8 N/A
2:36 am 02:36 Cloudy 43 6 43 6 100 100 SE 5 7 29.65 1004 4 6 N/A
2:55 am 02:55 Cloudy 43 6 43 6 100 100 SE 5 7 29.65 1004 4 6 N/A
3:16 am 03:16 Cloudy 43 6 43 6 100 100 SE 3 6 29.62 1003 4 6 N/A
3:35 am 03:35 Cloudy 43 6 43 6 100 100 N N/A 29.62 1003 4 6 N/A
3:55 am 03:55 Cloudy 43 6 43 6 100 100 N N/A 29.62 1003 4 6 N/A
4:16 am 04:16 Cloudy 45 7 43 6 93 93 N N/A 29.62 1003 3 5 N/A
4:35 am 04:35 Cloudy 45 7 43 6 93 93 N N/A 29.62 1003 3 5 N/A
4:55 am 04:55 Cloudy 43 6 43 6 100 100 S 5 7 29.62 1003 4 6 N/A
5:16 am 05:16 Cloudy 45 7 43 6 93 93 S 5 7 29.62 1003 5 8 N/A
5:35 am 05:35 Cloudy 45 7 43 6 93 93 SSE 6 9 29.62 1003 4 6 N/A
5:55 am 05:55 Cloudy 45 7 45 7 100 100 SE 6 9 29.59 1002 5 8 N/A
6:15 am 06:15 Cloudy 45 7 45 7 100 100 S 6 9 29.62 1003 4 6 N/A
6:35 am 06:35 Cloudy 45 7 45 7 100 100 S 8 13 29.62 1003 4 6 N/A
6:56 am 06:56 Cloudy 46 8 45 7 93 93 SSW 9 15 29.59 1002 2 2 N/A
7:15 am 07:15 Cloudy 46 8 46 8 100 100 SW 10 17 29.59 1002 1 1 N/A
7:35 am 07:35 Cloudy 46 8 46 8 100 100 SW 9 15 29.62 1003 1 2 N/A
7:55 am 07:55 Cloudy 48 9 48 9 100 100 SW 9 15 29.62 1003 1 2 N/A
8:15 am 08:15 Cloudy 48 9 48 9 100 100 WSW 9 15 29.62 1003 1 1 N/A
8:36 am 08:36 Cloudy 48 9 48 9 100 100 WSW 10 17 29.62 1003 1 1 N/A
8:55 am 08:55 Cloudy 48 9 48 9 100 100 WSW 9 15 29.65 1004 1 1 N/A
9:15 am 09:15 Cloudy 48 9 48 9 100 100 WSW 8 13 29.65 1004 2 2 N/A
9:36 am 09:36 Cloudy 48 9 48 9 100 100 WSW 9 15 29.65 1004 3 4 N/A
9:55 am 09:55 Cloudy 50 10 50 10 100 100 SW 7 11 29.68 1005 4 6 N/A
10:15 am 10:15 Cloudy 50 10 50 10 100 100 SW 8 13 29.68 1005 4 6 N/A
10:36 am 10:36 Cloudy 50 10 50 10 100 100 SW 10 17 29.68 1005 3 5 N/A
10:55 am 10:55 Cloudy 50 10 50 10 100 100 WSW 7 11 29.71 1006 4 6 N/A
11:15 am 11:15 Cloudy 52 11 50 10 94 94 WSW 6 9 29.68 1005 3 4 N/A
11:36 am 11:36 Cloudy 52 11 52 11 100 100 WSW 9 15 29.68 1005 3 5 N/A
11:55 am 11:55 Cloudy 52 11 50 10 94 94 WSW 8 13 29.68 1005 3 4 N/A
12:16 pm 12:16 Cloudy 54 12 52 11 94 94 WSW 15 24 29.68 1005 10 16 N/A
12:35 pm 12:35 Cloudy 54 12 50 10 88 88 SW 17 28 29.68 1005 10 16 N/A
12:55 pm 12:55 Cloudy 54 12 50 10 88 88 SW 16 26 29.68 1005 10 16 N/A
1:16 pm 13:16 Cloudy 54 12 50 10 88 88 SW 15 24 29.68 1005 10 16 N/A
1:35 pm 13:35 Cloudy 54 12 50 10 88 88 SW 16 26 29.68 1005 10 16 N/A
1:55 pm 13:55 Cloudy 54 12 48 9 82 82 SW 15 24 29.68 1005 10 16 N/A
2:15 pm 14:15 Cloudy 54 12 48 9 82 82 SSW 14 22 29.68 1005 10 16 N/A
2:35 pm 14:35 Cloudy 52 11 46 8 82 82 SW 13 20 29.68 1005 10 16 N/A
2:55 pm 14:55 Cloudy 54 12 48 9 82 82 SW 14 22 29.68 1005 10 16 N/A
3:15 pm 15:15 Mostly Cloudy 54 12 48 9 82 82 SW 14 22 29.68 1005 10 16 N/A
3:36 pm 15:36 Mostly Cloudy 54 12 48 9 82 82 SW 10 17 29.65 1004 10 16 N/A
3:55 pm 15:55 Mostly Cloudy 55 13 48 9 77 77 SW 13 20 29.68 1005 10 16 N/A
4:15 pm 16:15 Cloudy 54 12 48 9 82 82 SSW 10 17 29.68 1005 10 16 N/A
4:36 pm 16:36 Cloudy 54 12 46 8 77 77 SW 10 17 29.68 1005 10 16 N/A
4:55 pm 16:55 Cloudy 54 12 46 8 77 77 SW 9 15 29.71 1006 10 16 N/A
5:16 pm 17:16 Cloudy 52 11 46 8 82 82 SSW 10 17 29.71 1006 10 16 N/A
5:35 pm 17:35 Cloudy 52 11 46 8 82 82 SW 6 9 29.71 1006 10 16 N/A
5:55 pm 17:55 Cloudy 52 11 46 8 82 82 SSW 3 6 29.71 1006 10 16 N/A
6:16 pm 18:16 Cloudy 52 11 48 9 88 88 SSE 3 6 29.71 1006 10 16 N/A
6:35 pm 18:35 Cloudy 52 11 46 8 82 82 SSE 3 6 29.71 1006 10 16 N/A
6:55 pm 18:55 Cloudy 50 10 46 8 88 88 SE 6 9 29.71 1006 10 16 N/A
7:15 pm 19:15 Cloudy 50 10 46 8 88 88 SE 6 9 29.71 1006 10 16 N/A
7:35 pm 19:35 Cloudy 50 10 46 8 88 88 SE 6 9 29.71 1006 10 16 N/A
7:56 pm 19:56 Cloudy 50 10 46 8 88 88 SE 3 6 29.71 1006 10 16 N/A
8:15 pm 20:15 Cloudy 50 10 46 8 88 88 SE 5 7 29.71 1006 10 16 N/A
8:35 pm 20:35 Cloudy 50 10 48 9 94 94 SSE 5 7 29.71 1006 10 16 N/A
8:56 pm 20:56 Cloudy 50 10 48 9 94 94 SE 5 7 29.71 1006 10 16 N/A
9:15 pm 21:15 Cloudy 50 10 48 9 94 94 S 3 6 29.71 1006 10 16 N/A
9:35 pm 21:35 Cloudy 52 11 48 9 88 88 SSE 7 11 29.71 1006 10 16 N/A
9:56 pm 21:56 Mostly Cloudy 52 11 48 9 88 88 SE 7 11 29.71 1006 10 16 N/A
10:15 pm 22:15 Mostly Cloudy 50 10 48 9 94 94 SSE 6 9 29.71 1006 10 16 N/A
10:36 pm 22:36 Cloudy 52 11 48 9 88 88 SSE 7 11 29.71 1006 10 16 N/A
10:55 pm 22:55 Cloudy 52 11 48 9 88 88 S 6 9 29.71 1006 10 16 N/A
11:15 pm 23:15 Cloudy 50 10 48 9 94 94 SSE 7 11 29.71 1006 10 16 N/A
11:36 pm 23:36 Mostly Cloudy 50 10 48 9 94 94 SSE 8 13 29.71 1006 10 16 N/A
11:55 pm 23:55 Partly Cloudy 50 10 46 8 88 88 SSE 6 9 29.71 1006 10 16 N/A

Powered by AerisWeather